| time (UTC) | temp F | wind direction | speed MPH | gust MPH | rain 1hr in | rain 24hr in | rain mn in | humidity % | barometer mb |
| 20260902094204 | 62 | 72 | 0.0 | 0.0 | 0.00 | 0.29 | 0.00 | 98 | 1020.8 |
| 20260902092204 | 62 | 72 | 0.0 | 0.0 | 0.00 | 0.29 | 0.00 | 98 | 1020.7 |
| 20260902091704 | 62 | 72 | 0.0 | 0.0 | 0.00 | 0.29 | 0.00 | 98 | 1020.7 |
| 20260902090704 | 62 | 72 | 0.0 | 0.0 | 0.00 | 0.29 | 0.00 | 98 | 1020.5 |
| 20260902090204 | 62 | 72 | 0.0 | 0.0 | 0.00 | 0.29 | 0.00 | 98 | 1020.7 |
| 20260902084704 | 63 | 72 | 0.0 | 0.0 | 0.00 | 0.29 | 0.00 | 97 | 1020.7 |
| 20260902082204 | 63 | 72 | 0.0 | 0.0 | 0.00 | 0.29 | 0.00 | 98 | 1020.5 |
| 20260902081704 | 63 | 72 | 0.0 | 0.0 | 0.00 | 0.29 | 0.00 | 98 | 1020.6 |
| 20260902081203 | 63 | 72 | 0.0 | 0.0 | 0.00 | 0.29 | 0.00 | 98 | 1020.6 |
| 20260902075704 | 63 | 72 | 0.0 | 0.0 | 0.00 | 0.29 | 0.00 | 98 | 1020.9 |
| 20260902075204 | 63 | 72 | 0.0 | 0.0 | 0.00 | 0.29 | 0.00 | 98 | 1020.8 |
| 20260902074704 | 63 | 72 | 0.0 | 0.0 | 0.00 | 0.29 | 0.00 | 98 | 1020.9 |
| 20260902074204 | 63 | 72 | 0.0 | 0.0 | 0.00 | 0.29 | 0.00 | 98 | 1020.9 |
| 20260902073704 | 63 | 72 | 0.0 | 0.0 | 0.00 | 0.29 | 0.00 | 98 | 1020.9 |
| 20260902073204 | 63 | 72 | 0.0 | 0.0 | 0.00 | 0.29 | 0.00 | 98 | 1021.0 |
| 20260902072704 | 63 | 72 | 0.0 | 0.0 | 0.00 | 0.29 | 0.00 | 98 | 1021.0 |
| 20260902071704 | 63 | 72 | 0.0 | 0.0 | 0.00 | 0.29 | 0.00 | 98 | 1020.7 |
| 20260902070704 | 63 | 72 | 0.0 | 0.0 | 0.00 | 0.29 | 0.00 | 98 | 1020.6 |
| 20260902070203 | 63 | 72 | 0.0 | 0.0 | 0.00 | 0.29 | 0.00 | 98 | 1020.7 |
| 20260902065704 | 63 | 72 | 0.0 | 0.0 | 0.00 | 0.29 | 0.00 | 98 | 1020.5 |
| 20260902065204 | 63 | 72 | 0.0 | 0.0 | 0.00 | 0.29 | 0.00 | 98 | 1020.5 |
| 20260902064703 | 63 | 72 | 0.0 | 0.0 | 0.00 | 0.29 | 0.00 | 98 | 1020.5 |
| 20260902064204 | 63 | 72 | 0.0 | 0.0 | 0.00 | 0.29 | 0.00 | 98 | 1020.6 |
| 20260902063704 | 63 | 72 | 0.0 | 0.0 | 0.00 | 0.29 | 0.00 | 98 | 1020.6 |
| 20260902063204 | 63 | 72 | 0.0 | 0.0 | 0.00 | 0.29 | 0.00 | 98 | 1020.5 |
| 20260902062704 | 63 | 72 | 0.0 | 0.0 | 0.00 | 0.29 | 0.00 | 98 | 1020.6 |
| 20260902062204 | 63 | 72 | 0.0 | 0.0 | 0.00 | 0.29 | 0.00 | 98 | 1020.6 |
| 20260902060704 | 63 | 73 | 0.0 | 0.0 | 0.00 | 0.29 | 0.00 | 98 | 1020.6 |
| 20260902060204 | 63 | 73 | 0.0 | 0.0 | 0.00 | 0.29 | 0.00 | 98 | 1020.6 |
| 20260902055704 | 63 | 73 | 0.0 | 0.0 | 0.00 | 0.29 | 0.00 | 98 | 1020.6 |
| 20260902055203 | 63 | 73 | 0.0 | 0.0 | 0.00 | 0.29 | 0.00 | 98 | 1020.6 |
| 20260902054704 | 63 | 73 | 0.0 | 0.0 | 0.00 | 0.29 | 0.00 | 98 | 1020.5 |
| 20260902054204 | 63 | 73 | 0.0 | 0.0 | 0.00 | 0.29 | 0.00 | 98 | 1020.5 |
| 20260902053704 | 63 | 73 | 0.0 | 0.0 | 0.00 | 0.29 | 0.00 | 98 | 1020.5 |
| 20260902053204 | 63 | 73 | 0.0 | 0.0 | 0.00 | 0.29 | 0.00 | 98 | 1020.5 |
| 20260902051704 | 63 | 73 | 0.0 | 0.0 | 0.00 | 0.29 | 0.00 | 97 | 1020.3 |
| 20260902051203 | 63 | 73 | 0.0 | 0.0 | 0.00 | 0.29 | 0.00 | 97 | 1020.3 |
| 20260902050704 | 63 | 73 | 0.0 | 0.0 | 0.00 | 0.29 | 0.00 | 97 | 1020.2 |
| 20260902050204 | 63 | 73 | 0.0 | 0.0 | 0.00 | 0.29 | 0.00 | 97 | 1020.1 |
| 20260902045703 | 63 | 73 | 0.0 | 0.0 | 0.00 | 0.29 | 0.00 | 98 | 1020.1 |
| 20260902044204 | 63 | 73 | 0.0 | 0.0 | 0.00 | 0.29 | 0.00 | 97 | 1019.8 |
| 20260902042704 | 63 | 73 | 0.0 | 0.0 | 0.00 | 0.29 | 0.00 | 97 | 1019.7 |
| 20260902042204 | 63 | 73 | 0.0 | 0.0 | 0.00 | 0.29 | 0.00 | 97 | 1019.7 |
| 20260902041203 | 63 | 73 | 0.0 | 0.0 | 0.00 | 0.29 | 0.00 | 97 | 1019.5 |
| 20260902040704 | 63 | 73 | 0.0 | 0.0 | 0.00 | 0.29 | 0.00 | 97 | 1019.4 |
| 20260902035703 | 63 | 73 | 0.0 | 0.0 | 0.00 | 0.29 | 0.29 | 97 | 1019.2 |
| 20260902035204 | 63 | 73 | 0.0 | 0.0 | 0.00 | 0.29 | 0.29 | 97 | 1019.2 |
| 20260902032704 | 64 | 73 | 0.0 | 0.0 | 0.00 | 0.29 | 0.29 | 97 | 1018.9 |
| 20260902032204 | 64 | 73 | 0.0 | 0.0 | 0.00 | 0.29 | 0.29 | 97 | 1018.9 |
| 20260902031204 | 64 | 73 | 0.0 | 0.0 | 0.00 | 0.29 | 0.29 | 97 | 1019.0 |
| 20260902030203 | 64 | 73 | 0.0 | 0.0 | 0.00 | 0.29 | 0.29 | 97 | 1019.1 |
| 20260902025704 | 64 | 73 | 0.0 | 0.0 | 0.00 | 0.29 | 0.29 | 97 | 1019.1 |
| 20260902025203 | 64 | 73 | 0.0 | 0.0 | 0.00 | 0.29 | 0.29 | 97 | 1019.0 |
| 20260902024703 | 64 | 73 | 0.0 | 0.0 | 0.00 | 0.29 | 0.29 | 97 | 1019.1 |
| 20260902023703 | 64 | 73 | 0.0 | 0.0 | 0.00 | 0.29 | 0.29 | 97 | 1019.1 |
| 20260902023204 | 64 | 73 | 0.0 | 0.0 | 0.00 | 0.29 | 0.29 | 97 | 1019.1 |
| 20260902022704 | 64 | 73 | 0.0 | 0.0 | 0.00 | 0.29 | 0.29 | 97 | 1019.2 |
| 20260902021203 | 64 | 73 | 0.0 | 0.0 | 0.00 | 0.29 | 0.29 | 97 | 1019.2 |
| 20260902012703 | 64 | 74 | 0.0 | 0.0 | 0.00 | 0.29 | 0.29 | 97 | 1018.9 |
| 20260902012203 | 64 | 74 | 0.0 | 0.0 | 0.00 | 0.29 | 0.29 | 97 | 1019.0 |
| 20260902011705 | 64 | 74 | 0.0 | 0.0 | 0.00 | 0.29 | 0.29 | 97 | 1019.0 |
| 20260902005705 | 64 | 74 | 0.0 | 0.0 | 0.00 | 0.29 | 0.29 | 97 | 1019.0 |
| 20260902004704 | 64 | 74 | 0.0 | 0.0 | 0.00 | 0.29 | 0.29 | 97 | 1018.8 |
| 20260902002705 | 64 | 74 | 0.0 | 0.0 | 0.00 | 0.29 | 0.29 | 97 | 1018.7 |
| 20260902001705 | 64 | 74 | 0.0 | 0.0 | 0.00 | 0.29 | 0.29 | 97 | 1018.5 |
| 20260902000705 | 65 | 74 | 0.0 | 0.0 | 0.00 | 0.29 | 0.29 | 97 | 1018.5 |
| 20260901234205 | 65 | 74 | 0.0 | 0.0 | 0.00 | 0.29 | 0.29 | 97 | 1018.3 |
| 20260901233204 | 65 | 74 | 0.0 | 0.0 | 0.00 | 0.29 | 0.29 | 97 | 1018.4 |
| 20260901232704 | 65 | 74 | 0.0 | 0.0 | 0.00 | 0.29 | 0.29 | 97 | 1018.5 |
| 20260901230704 | 65 | 74 | 0.0 | 0.0 | 0.00 | 0.29 | 0.29 | 97 | 1018.4 |
| 20260901230204 | 65 | 74 | 0.0 | 0.0 | 0.00 | 0.29 | 0.29 | 97 | 1018.3 |
| 20260901225205 | 65 | 74 | 0.0 | 0.0 | 0.00 | 0.29 | 0.29 | 97 | 1018.4 |
| 20260901224704 | 65 | 74 | 0.0 | 0.0 | 0.00 | 0.29 | 0.29 | 97 | 1018.4 |
| 20260901221705 | 65 | 73 | 0.0 | 0.0 | 0.01 | 0.29 | 0.29 | 96 | 1018.2 |
| 20260901220205 | 65 | 73 | 0.0 | 0.0 | 0.01 | 0.29 | 0.29 | 96 | 1018.2 |
| 20260901214205 | 65 | 74 | 0.0 | 0.0 | 0.01 | 0.29 | 0.29 | 96 | 1018.0 |
| 20260901212204 | 66 | 53 | 0.0 | 0.0 | 0.00 | 0.28 | 0.28 | 96 | 1017.9 |
| 20260901210204 | 66 | 304 | 0.0 | 0.0 | 0.00 | 0.28 | 0.28 | 97 | 1017.6 |
| 20260901205204 | 66 | 81 | 0.0 | 0.0 | 0.00 | 0.28 | 0.28 | 96 | 1017.4 |
| 20260901204705 | 66 | 81 | 0.0 | 0.0 | 0.00 | 0.28 | 0.28 | 97 | 1017.5 |
| 20260901203704 | 66 | 81 | 0.0 | 0.0 | 0.00 | 0.28 | 0.28 | 96 | 1017.5 |
| 20260901203205 | 66 | 81 | 0.0 | 0.0 | 0.00 | 0.28 | 0.28 | 96 | 1017.4 |
| 20260901201704 | 66 | 81 | 0.0 | 0.0 | 0.00 | 0.28 | 0.28 | 96 | 1017.3 |
| 20260901201204 | 66 | 81 | 0.0 | 0.0 | 0.00 | 0.28 | 0.28 | 97 | 1017.3 |
| 20260901200705 | 66 | 81 | 0.0 | 0.0 | 0.00 | 0.28 | 0.28 | 97 | 1017.4 |
| 20260901195204 | 67 | 61 | 0.0 | 0.0 | 0.00 | 0.28 | 0.28 | 97 | 1017.4 |
| 20260901194704 | 67 | 42 | 0.0 | 0.0 | 0.00 | 0.28 | 0.28 | 96 | 1017.4 |
| 20260901193204 | 67 | 62 | 0.0 | 0.0 | 0.00 | 0.28 | 0.28 | 97 | 1017.4 |
| 20260901192704 | 67 | 63 | 0.0 | 0.0 | 0.00 | 0.28 | 0.28 | 97 | 1017.4 |
| 20260901192205 | 67 | 63 | 0.0 | 0.0 | 0.00 | 0.28 | 0.28 | 96 | 1017.4 |
| 20260901191704 | 67 | 69 | 0.0 | 0.0 | 0.00 | 0.28 | 0.28 | 97 | 1017.5 |
| 20260901190705 | 67 | 84 | 0.0 | 0.0 | 0.00 | 0.28 | 0.28 | 97 | 1017.5 |
| 20260901190204 | 66 | 94 | 0.0 | 0.0 | 0.00 | 0.28 | 0.28 | 97 | 1017.5 |
| 20260901183704 | 66 | 87 | 0.0 | 0.0 | 0.00 | 0.28 | 0.28 | 97 | 1017.6 |
| 20260901182205 | 66 | 86 | 0.0 | 0.0 | 0.00 | 0.28 | 0.28 | 97 | 1017.6 |
| 20260901181704 | 66 | 72 | 0.0 | 0.0 | 0.00 | 0.28 | 0.28 | 97 | 1017.5 |
| 20260901181204 | 66 | 72 | 0.0 | 0.0 | 0.00 | 0.28 | 0.28 | 97 | 1017.5 |
| 20260901175704 | 66 | 76 | 0.0 | 0.0 | 0.01 | 0.28 | 0.28 | 97 | 1017.3 |
| 20260901175205 | 66 | 76 | 0.0 | 0.0 | 0.01 | 0.28 | 0.28 | 97 | 1017.2 |
| 20260901174704 | 65 | 80 | 0.0 | 0.0 | 0.01 | 0.28 | 0.28 | 97 | 1017.1 |
| 20260901173704 | 65 | 32 | 0.0 | 0.0 | 0.01 | 0.28 | 0.28 | 97 | 1017.0 |
| 20260901171705 | 65 | 59 | 0.0 | 0.0 | 0.01 | 0.28 | 0.28 | 97 | 1017.1 |
| 20260901170704 | 64 | 61 | 0.0 | 0.0 | 0.01 | 0.28 | 0.28 | 96 | 1017.3 |
| 20260901170204 | 64 | 34 | 0.0 | 0.0 | 0.01 | 0.28 | 0.28 | 96 | 1017.4 |
| 20260901164704 | 64 | 55 | 0.0 | 0.0 | 0.00 | 0.27 | 0.27 | 96 | 1017.3 |
| 20260901164204 | 64 | 70 | 0.0 | 0.0 | 0.00 | 0.27 | 0.27 | 96 | 1017.4 |
| 20260901163204 | 64 | 67 | 0.0 | 0.0 | 0.00 | 0.27 | 0.27 | 96 | 1017.4 |
| 20260901161204 | 64 | 83 | 0.0 | 0.0 | 0.00 | 0.27 | 0.27 | 96 | 1017.7 |
| 20260901154704 | 64 | 96 | 0.0 | 0.0 | 0.00 | 0.27 | 0.27 | 96 | 1017.4 |
| 20260901153204 | 63 | 99 | 0.0 | 0.0 | 0.00 | 0.27 | 0.27 | 96 | 1017.3 |
| 20260901152704 | 63 | 99 | 0.0 | 0.0 | 0.00 | 0.27 | 0.27 | 96 | 1017.2 |
| 20260901152204 | 63 | 99 | 0.0 | 0.0 | 0.00 | 0.27 | 0.27 | 96 | 1017.4 |
| 20260901151204 | 63 | 48 | 0.0 | 0.0 | 0.01 | 0.27 | 0.27 | 96 | 1017.5 |
| 20260901150204 | 63 | 49 | 0.0 | 0.0 | 0.01 | 0.27 | 0.27 | 96 | 1017.5 |
| 20260901143705 | 63 | 36 | 0.0 | 0.0 | 0.02 | 0.27 | 0.27 | 96 | 1017.3 |
| 20260901142705 | 63 | 36 | 0.0 | 0.0 | 0.03 | 0.27 | 0.27 | 96 | 1017.3 |
| 20260901142205 | 63 | 36 | 0.0 | 0.0 | 0.03 | 0.27 | 0.27 | 96 | 1017.4 |
| 20260901140204 | 63 | 36 | 0.0 | 0.0 | 0.06 | 0.26 | 0.26 | 95 | 1017.1 |
| 20260901135204 | 63 | 35 | 0.0 | 0.0 | 0.09 | 0.26 | 0.26 | 95 | 1017.1 |
| 20260901134204 | 63 | 115 | 0.0 | 0.0 | 0.13 | 0.25 | 0.25 | 95 | 1017.3 |
| 20260901133704 | 63 | 115 | 0.0 | 0.0 | 0.15 | 0.25 | 0.25 | 95 | 1017.4 |
| 20260901133204 | 63 | 115 | 0.0 | 0.0 | 0.17 | 0.25 | 0.25 | 95 | 1017.5 |
| 20260901132704 | 64 | 115 | 0.0 | 0.0 | 0.17 | 0.24 | 0.24 | 95 | 1017.6 |
| 20260901130704 | 64 | 114 | 0.0 | 0.0 | 0.19 | 0.20 | 0.20 | 95 | 1017.8 |
| 20260901130204 | 64 | 131 | 0.0 | 0.0 | 0.20 | 0.20 | 0.20 | 96 | 1017.8 |
| 20260901125705 | 64 | 124 | 0.0 | 0.0 | 0.19 | 0.19 | 0.19 | 95 | 1017.8 |
| 20260901125204 | 64 | 124 | 0.0 | 1.0 | 0.17 | 0.17 | 0.17 | 95 | 1017.8 |
| 20260901124704 | 65 | 271 | 0.0 | 0.0 | 0.15 | 0.15 | 0.15 | 95 | 1017.8 |
| 20260901123704 | 65 | 267 | 0.0 | 0.0 | 0.10 | 0.10 | 0.10 | 95 | 1017.9 |
| 20260901123204 | 65 | 272 | 0.0 | 0.0 | 0.08 | 0.08 | 0.08 | 95 | 1017.9 |
| 20260901122204 | 65 | 0 | 0.0 | 1.0 | 0.04 | 0.04 | 0.04 | 95 | 1018.0 |
| 20260901115704 | 65 | 5 | 0.0 | 0.0 | 0.00 | 0.00 | 0.00 | 95 | 1017.8 |
| 20260901114704 | 65 | 5 | 0.0 | 0.0 | 0.00 | 0.00 | 0.00 | 95 | 1017.7 |
| 20260901113705 | 65 | 5 | 0.0 | 0.0 | 0.00 | 0.00 | 0.00 | 95 | 1017.6 |
| 20260901113204 | 65 | 5 | 0.0 | 0.0 | 0.00 | 0.00 | 0.00 | 95 | 1017.6 |
| 20260901112204 | 65 | 5 | 0.0 | 0.0 | 0.00 | 0.00 | 0.00 | 94 | 1017.5 |
| 20260901111704 | 65 | 5 | 0.0 | 0.0 | 0.00 | 0.00 | 0.00 | 94 | 1017.5 |
| 20260901111204 | 65 | 5 | 0.0 | 0.0 | 0.00 | 0.00 | 0.00 | 94 | 1017.5 |
| 20260901110703 | 65 | 5 | 0.0 | 0.0 | 0.00 | 0.00 | 0.00 | 94 | 1017.5 |
| 20260901110204 | 65 | 5 | 0.0 | 0.0 | 0.00 | 0.00 | 0.00 | 94 | 1017.5 |
| 20260901105705 | 65 | 5 | 0.0 | 0.0 | 0.00 | 0.00 | 0.00 | 94 | 1017.3 |
| 20260901105204 | 65 | 5 | 0.0 | 0.0 | 0.00 | 0.00 | 0.00 | 94 | 1017.3 |
| 20260901103704 | 65 | 5 | 0.0 | 0.0 | 0.00 | 0.00 | 0.00 | 94 | 1017.1 |
| 20260901103204 | 65 | 5 | 0.0 | 0.0 | 0.00 | 0.00 | 0.00 | 94 | 1017.1 |
| 20260901102704 | 65 | 5 | 0.0 | 0.0 | 0.00 | 0.00 | 0.00 | 94 | 1017.0 |
| 20260901101704 | 64 | 5 | 0.0 | 0.0 | 0.00 | 0.00 | 0.00 | 94 | 1016.9 |
| 20260901101204 | 64 | 5 | 0.0 | 0.0 | 0.00 | 0.00 | 0.00 | 94 | 1016.8 |
| 20260901100704 | 64 | 5 | 0.0 | 0.0 | 0.00 | 0.00 | 0.00 | 94 | 1016.7 |
| 20260901095704 | 64 | 5 | 0.0 | 0.0 | 0.00 | 0.00 | 0.00 | 94 | 1016.6 |
| 20260901095204 | 64 | 5 | 0.0 | 0.0 | 0.00 | 0.00 | 0.00 | 94 | 1016.6 |